This is the latest recevied weather packets stored in our database for station/object K1BWE-1. If no packets are shown the sender has not sent any weather packets the latest 10 day(s).
| Time | Temp. | Humidity | Pressure | Rain* | Wind** | Luminosity | Snow |
|---|---|---|---|---|---|---|---|
| 1777510559 | 25° C | 15% | 1014.3 hPa | 0 mm | - | 61 W/m² | - |
| 1777510255 | 25° C | 14% | 1014.7 hPa | 0 mm | - | 55 W/m² | - |
| 1777509952 | 25° C | 15% | 1014.5 hPa | 0 mm | - | 56 W/m² | - |
| 1777509647 | 25° C | 15% | 1014.8 hPa | 0 mm | - | 64 W/m² | - |
| 1777509344 | 25° C | 15% | 1014.7 hPa | 0 mm | - | 75 W/m² | - |
| 1777509042 | 25° C | 15% | 1014.4 hPa | 0 mm | - | 102 W/m² | - |
| 1777508739 | 25° C | 14% | 1014.4 hPa | 0 mm | - | 65 W/m² | - |
| 1777508436 | 25° C | 15% | 1014.3 hPa | 0 mm | - | 90 W/m² | - |
| 1777508133 | 25° C | 14% | 1014.2 hPa | 0 mm | - | 81 W/m² | - |
| 1777507829 | 25° C | 14% | 1014.5 hPa | 0 mm | - | 108 W/m² | - |
| 1777507527 | 25.56° C | 15% | 1014.7 hPa | 0 mm | - | 99 W/m² | - |
| 1777507223 | 25.56° C | 14% | 1015 hPa | 0 mm | - | 118 W/m² | - |
| 1777506921 | 25.56° C | 14% | 1015.1 hPa | 0 mm | - | 98 W/m² | - |
| 1777506618 | 25.56° C | 14% | 1015 hPa | 0 mm | - | 103 W/m² | - |
| 1777506314 | 25.56° C | 14% | 1014.9 hPa | 0 mm | - | 117 W/m² | - |
| 1777506010 | 25.56° C | 14% | 1014.7 hPa | 0 mm | - | 115 W/m² | - |
| 1777505706 | 25.56° C | 15% | 1014.9 hPa | 0 mm | - | 128 W/m² | - |
| 1777505403 | 26.11° C | 13% | 1014.8 hPa | 0 mm | - | 176 W/m² | - |
| 1777505100 | 26.67° C | 13% | 1014.7 hPa | 0 mm | - | 181 W/m² | - |
| 1777504797 | 26.67° C | 13% | 1014.8 hPa | 0 mm | - | 478 W/m² | - |
| 1777504494 | 26.11° C | 14% | 1014.5 hPa | 0 mm | - | 212 W/m² | - |
| 1777504189 | 25.56° C | 16% | 1014.7 hPa | 0 mm | - | 172 W/m² | - |
| 1777503885 | 25.56° C | 13% | 1015 hPa | 0 mm | - | 165 W/m² | - |
| 1777503581 | 25.56° C | 13% | 1014.9 hPa | 0 mm | - | 158 W/m² | - |
| 1777503279 | 25.56° C | 13% | 1014.8 hPa | 0 mm | - | 162 W/m² | - |
* Rain latest hour (hover to see other rain measurements)
** Current wind speed in m/s (hover to see current wind gust speed)